This is the latest recevied weather packets stored in our database for station/object AD0YN. If no packets are shown the sender has not sent any weather packets the latest 10 day(s).
| Time | Temp. | Humidity | Pressure | Rain* | Wind** | Luminosity | Snow |
|---|---|---|---|---|---|---|---|
| 1788526993 | 25.56° C | 73% | 1014.7 hPa | 0 mm | - | 123 W/m² | - |
| 1788526689 | 25.56° C | 74% | 1014.7 hPa | 0 mm | - | 112 W/m² | - |
| 1788526385 | 25° C | 75% | 1015 hPa | 0 mm | - | 102 W/m² | - |
| 1788526084 | 25° C | 76% | 1014.6 hPa | 0 mm | - | 92 W/m² | - |
| 1788525781 | 24.44° C | 76% | 1014.6 hPa | 0 mm | - | 82 W/m² | - |
| 1788525475 | 24.44° C | 77% | 1014.3 hPa | 0 mm | - | 71 W/m² | - |
| 1788525171 | 23.89° C | 78% | 1014.4 hPa | 0 mm | - | 61 W/m² | - |
| 1788524866 | 23.89° C | 79% | 1014.3 hPa | 0 mm | - | 52 W/m² | - |
| 1788524565 | 23.89° C | 79% | 1014.2 hPa | 0 mm | - | 45 W/m² | - |
| 1788524261 | 23.89° C | 78% | 1014 hPa | 0 mm | - | 30 W/m² | - |
| 1788523956 | 23.89° C | 78% | 1014 hPa | 0 mm | - | 25 W/m² | - |
| 1788523653 | 23.89° C | 78% | 1013.9 hPa | 0 mm | - | 22 W/m² | - |
| 1788523348 | 23.89° C | 79% | 1014.1 hPa | 0 mm | - | 18 W/m² | - |
| 1788523043 | 23.89° C | 79% | 1013.8 hPa | 0 mm | - | 13 W/m² | - |
| 1788522738 | 23.89° C | 79% | 1013.8 hPa | 0 mm | - | 9 W/m² | - |
| 1788522433 | 23.89° C | 78% | 1013.9 hPa | 0 mm | - | 6 W/m² | - |
| 1788522142 | 23.89° C | 78% | 1013.4 hPa | 0 mm | - | 3 W/m² | - |
| 1788521828 | 23.89° C | 78% | 1013.5 hPa | 0 mm | - | 2 W/m² | - |
| 1788521527 | 23.89° C | 78% | 1013.7 hPa | 0 mm | - | 1 W/m² | - |
| 1788521222 | 23.89° C | 78% | 1013.3 hPa | 0 mm | - | 0 W/m² | - |
| 1788520918 | 23.89° C | 78% | 1013.5 hPa | 0 mm | - | 0 W/m² | - |
| 1788520613 | 23.89° C | 78% | 1013.3 hPa | 0 mm | - | 0 W/m² | - |
| 1788520309 | 23.89° C | 78% | 1013.4 hPa | 0 mm | - | 0 W/m² | - |
| 1788520004 | 23.89° C | 77% | 1013.2 hPa | 0 mm | - | 0 W/m² | - |
| 1788519704 | 23.89° C | 77% | 1013.3 hPa | 0 mm | - | 0 W/m² | - |
* Rain latest hour (hover to see other rain measurements)
** Current wind speed in m/s (hover to see current wind gust speed)